Location: Cucq
(50.4773°N, 1.6202°E)
Time: 15:42:04
(UTC+00:00)

Cosmos 1092 Rocket - Pass Details

Date: 07 August 2020
Orbit: 953 x 996 km, 82.9° (Epoch: 18 September)

Event Time Altitude Azimuth Distance (km) Brightness Sun altitude
Rises 00:36:12 0° 352° (N) 3,702 8.3 -22.7°
Reaches altitude 10° 00:38:48 10° 356° (N) 2,743 7.4 -22.6°
Maximum altitude 00:45:01 60° 76° (ENE) 1,105 4.3 -22.4°
Enters shadow 00:48:04 30° 145° (SE) 1,655 4.8 -22.3°
